This demonstration page uses our WeatherBlox Daily Observations layout. Learn more.

Left ArrowRight Arrow

Hourly Observations for April 27, 2021

Temp ( °F °C ) Dew Point ( °F °C ) Humidity (%) Winds ( mph kmh ) Pressure ( in mb ) Visibility ( mi km ) Precip ( " mm )
12:56 am 00:56 Clear 65 18.3 55 12.8 70 70 SE 8 13 29.41 996 10 16 0.00 0.00
1:56 am 01:56 Clear 64 17.8 54 12.2 70 70 SSE 6 9 29.40 996 10 16 0.00 0.00
2:56 am 02:56 Clear 62 16.7 55 12.8 78 78 S 12 19 29.37 995 10 16 0.00 0.00
3:56 am 03:56 Clear 57 13.9 52 11.1 83 83 N 8 13 29.39 995 10 16 0.00 0.00
4:56 am 04:56 Clear 52 11.1 50 10 93 93 ESE 6 9 29.40 996 10 16 0.00 0.00
5:56 am 05:56 Clear 53 11.7 51 10.6 93 93 N 13 20 29.43 997 10 16 0.00 0.00
6:56 am 06:56 Sunny 51 10.6 48 8.9 89 89 NNE 21 33 29.48 998 9 14 0.00 0.00
7:24 am 07:24 Mostly Cloudy 50 10 46 8 88 88 N 17 28 29.59 1002 10 16 0.00 0.00
7:56 am 07:56 Cloudy 51 10.6 46 7.8 83 83 N 21 33 29.57 1001 10 16 0.00 0.00
8:56 am 08:56 Cloudy 52 11.1 46 7.8 80 80 NNW 16 26 29.62 1003 10 16 0.00 0.00
9:56 am 09:56 Cloudy 54 12.2 46 7.8 75 75 N 23 37 29.63 1003 10 16 0.00 0.00
10:56 am 10:56 Cloudy 54 12.2 46 7.8 75 75 N 24 39 29.67 1005 10 16 0.00 0.00
11:44 am 11:44 Cloudy 54 12 46 8 77 77 N 20 31 29.72 1006 10 16 0.00 0.00
11:56 am 11:56 Cloudy 55 12.8 46 7.8 72 72 N 18 30 29.70 1006 10 16 0.00 0.00
12:56 pm 12:56 Cloudy 60 15.6 48 8.9 65 65 N 24 39 29.68 1005 10 16 0.00 0.00
1:11 pm 13:11 Mostly Cloudy 61 16 48 9 63 63 N 23 37 29.66 1004 10 16 0.00 0.00
1:56 pm 13:56 Mostly Sunny 60 15.6 48 8.9 65 65 NNE 24 39 29.68 1005 10 16 0.00 0.00
2:56 pm 14:56 Mostly Sunny 61 16.1 48 8.9 63 63 NNE 18 30 29.71 1006 10 16 0.00 0.00
3:12 pm 15:12 Mostly Cloudy 59 15 46 8 63 63 NNE 16 26 29.73 1007 10 16 0.00 0.00
3:56 pm 15:56 Cloudy 59 15 48 8.9 67 67 NNE 20 31 29.74 1007 10 16 0.00 0.00
4:56 pm 16:56 Cloudy 58 14.4 48 8.9 70 70 ENE 13 20 29.77 1008 10 16 0.00 0.00
5:56 pm 17:56 Cloudy 58 14.4 48 8.9 70 70 ENE 14 22 29.77 1008 10 16 0.00 0.00
6:56 pm 18:56 Cloudy 57 13.9 48 8.9 72 72 NE 16 26 29.78 1009 10 16 0.00 0.00
7:56 pm 19:56 Cloudy 57 13.9 47 8.3 69 69 NNE 16 26 29.78 1009 10 16 0.00 0.00
8:56 pm 20:56 Cloudy 56 13.3 47 8.3 72 72 NE 13 20 29.83 1010 10 16 0.00 0.00
9:56 pm 21:56 Cloudy 56 13.3 47 8.3 72 72 NE 15 24 29.84 1011 10 16 0.00 0.00
10:56 pm 22:56 Cloudy with Thunderstorms 54 12.2 47 8.3 77 77 NNE 18 30 29.83 1010 10 16 0.00 0.00
11:30 pm 23:30 Cloudy with Light Rain 54 12 48 9 82 82 NE 24 39 29.79 1009 10 16 0.00 0.00
11:47 pm 23:47 Partly Cloudy 52 11 46 8 82 82 NE 18 30 29.82 1010 10 16 0.00 0.00
11:56 pm 23:56 Mostly Clear 52 11.1 47 8.3 83 83 ENE 22 35 29.82 1010 10 16 0.00 0.00

Powered by AerisWeather